Multibeam Report for MGL1302


Ship Name: Marcus G. Langseth
Chief Scientist: None
Source Organization: UNOLS R2R
Start Date: 2013-02-27
End Date: 2013-03-21


View ISO Metadata

Visit the full NCEI Bathymetry Viewer


Multibeam Bathymetry

Cruise Details

Project: Transit
Instrument: Kongsberg EM122

Data Quality

Number of Files: 159
Number of Records: 244393
BATHYMETRY DATA Quantity Percentage
Number of Beams 105577776 100%
Number of Good Beams 100105399 94.82%
Number of Zero Beams 0 0%
Number of Flagged Beams 5472377 5.18%

Navigation Totals

Total Time: 75.4989 hours
Total Track Length: 1476.8374 km
Average Speed: 19.561 km/hr (10.5621 knots)

Cruise Bounds

Northern Extent: 44.58491
Southern Extent: 26.759369
Western Extent: -124.755974
Eastern Extent: -91.137856

Limits

Minimum Sonar Depth 1.8059 Maximum Sonar Depth 11.0903
Minimum Altitude 33.257 Maximum Altitude 11902.1992
Minimum Depth 29.5307 Maximum Depth 11996.6787

File Information

Full Resolution Bathymetry as collected (raw): 156

Files File Size Description
0000_20130227_221049_Langseth.all.mb58.gz 169.11MB Kongsberg multibeam vendor format
0001_20130227_224049_Langseth.all.mb58.gz 160.93MB Kongsberg multibeam vendor format
0002_20130227_231049_Langseth.all.mb58.gz 161.51MB Kongsberg multibeam vendor format
0003_20130227_234049_Langseth.all.mb58.gz 162.17MB Kongsberg multibeam vendor format
0009_20130228_024049_Langseth.all.mb58.gz 99.41MB Kongsberg multibeam vendor format
0010_20130228_031049_Langseth.all.mb58.gz 86.17MB Kongsberg multibeam vendor format
0018_20130228_071049_Langseth.all.mb58.gz 103.98MB Kongsberg multibeam vendor format
0020_20130228_081049_Langseth.all.mb58.gz 107.00MB Kongsberg multibeam vendor format
0021_20130228_084049_Langseth.all.mb58.gz 120.49MB Kongsberg multibeam vendor format
0023_20130228_094049_Langseth.all.mb58.gz 99.86MB Kongsberg multibeam vendor format
0025_20130228_104049_Langseth.all.mb58.gz 58.07MB Kongsberg multibeam vendor format
0034_20130228_150958_Langseth.all.mb58.gz 49.78MB Kongsberg multibeam vendor format
0040_20130228_180956_Langseth.all.mb58.gz 40.54MB Kongsberg multibeam vendor format
0042_20130228_190959_Langseth.all.mb58.gz 39.25MB Kongsberg multibeam vendor format
0051_20130228_233956_Langseth.all.mb58.gz 61.80MB Kongsberg multibeam vendor format
0052_20130301_000958_Langseth.all.mb58.gz 65.18MB Kongsberg multibeam vendor format
0053_20130301_003955_Langseth.all.mb58.gz 76.59MB Kongsberg multibeam vendor format
0054_20130301_010957_Langseth.all.mb58.gz 51.90MB Kongsberg multibeam vendor format
0055_20130301_013957_Langseth.all.mb58.gz 46.50MB Kongsberg multibeam vendor format
0056_20130301_020957_Langseth.all.mb58.gz 39.68MB Kongsberg multibeam vendor format
0057_20130301_023959_Langseth.all.mb58.gz 37.27MB Kongsberg multibeam vendor format
0058_20130301_031000_Langseth.all.mb58.gz 35.32MB Kongsberg multibeam vendor format
0059_20130301_033956_Langseth.all.mb58.gz 34.96MB Kongsberg multibeam vendor format
0060_20130301_040959_Langseth.all.mb58.gz 36.03MB Kongsberg multibeam vendor format
0061_20130301_043959_Langseth.all.mb58.gz 37.74MB Kongsberg multibeam vendor format
0062_20130301_050956_Langseth.all.mb58.gz 42.41MB Kongsberg multibeam vendor format
0063_20130301_053958_Langseth.all.mb58.gz 46.10MB Kongsberg multibeam vendor format
0064_20130301_060955_Langseth.all.mb58.gz 48.73MB Kongsberg multibeam vendor format
0065_20130301_063956_Langseth.all.mb58.gz 52.51MB Kongsberg multibeam vendor format
0066_20130301_070957_Langseth.all.mb58.gz 55.79MB Kongsberg multibeam vendor format
0067_20130301_073956_Langseth.all.mb58.gz 56.76MB Kongsberg multibeam vendor format
0068_20130301_080955_Langseth.all.mb58.gz 86.96MB Kongsberg multibeam vendor format
0069_20130301_083955_Langseth.all.mb58.gz 89.76MB Kongsberg multibeam vendor format
0070_20130301_090956_Langseth.all.mb58.gz 54.40MB Kongsberg multibeam vendor format
0071_20130301_093957_Langseth.all.mb58.gz 49.40MB Kongsberg multibeam vendor format
0072_20130301_100955_Langseth.all.mb58.gz 38.41MB Kongsberg multibeam vendor format
0073_20130301_103955_Langseth.all.mb58.gz 35.12MB Kongsberg multibeam vendor format
0074_20130301_110956_Langseth.all.mb58.gz 36.10MB Kongsberg multibeam vendor format
0075_20130301_114000_Langseth.all.mb58.gz 34.50MB Kongsberg multibeam vendor format
0076_20130301_121000_Langseth.all.mb58.gz 33.60MB Kongsberg multibeam vendor format
0077_20130301_123957_Langseth.all.mb58.gz 33.74MB Kongsberg multibeam vendor format
0078_20130301_131002_Langseth.all.mb58.gz 32.84MB Kongsberg multibeam vendor format
0079_20130301_133956_Langseth.all.mb58.gz 32.95MB Kongsberg multibeam vendor format
0080_20130301_141000_Langseth.all.mb58.gz 32.05MB Kongsberg multibeam vendor format
0081_20130301_143955_Langseth.all.mb58.gz 33.39MB Kongsberg multibeam vendor format
0082_20130301_150958_Langseth.all.mb58.gz 29.77MB Kongsberg multibeam vendor format
0083_20130301_154000_Langseth.all.mb58.gz 26.01MB Kongsberg multibeam vendor format
0084_20130301_160956_Langseth.all.mb58.gz 29.10MB Kongsberg multibeam vendor format
0085_20130301_163959_Langseth.all.mb58.gz 33.25MB Kongsberg multibeam vendor format
0086_20130301_170958_Langseth.all.mb58.gz 39.86MB Kongsberg multibeam vendor format
0087_20130301_173957_Langseth.all.mb58.gz 40.53MB Kongsberg multibeam vendor format
0088_20130301_180956_Langseth.all.mb58.gz 47.11MB Kongsberg multibeam vendor format
0089_20130301_183957_Langseth.all.mb58.gz 47.87MB Kongsberg multibeam vendor format
0090_20130301_190955_Langseth.all.mb58.gz 48.18MB Kongsberg multibeam vendor format
0091_20130301_193956_Langseth.all.mb58.gz 36.06MB Kongsberg multibeam vendor format
0092_20130301_201001_Langseth.all.mb58.gz 28.42MB Kongsberg multibeam vendor format
0093_20130301_203959_Langseth.all.mb58.gz 24.67MB Kongsberg multibeam vendor format
0094_20130301_211006_Langseth.all.mb58.gz 17.98MB Kongsberg multibeam vendor format
0095_20130301_214001_Langseth.all.mb58.gz 21.66MB Kongsberg multibeam vendor format
0096_20130301_220958_Langseth.all.mb58.gz 17.85MB Kongsberg multibeam vendor format
0097_20130301_224000_Langseth.all.mb58.gz 17.44MB Kongsberg multibeam vendor format
0098_20130301_231001_Langseth.all.mb58.gz 17.30MB Kongsberg multibeam vendor format
0099_20130301_233957_Langseth.all.mb58.gz 16.81MB Kongsberg multibeam vendor format
0100_20130302_001003_Langseth.all.mb58.gz 18.75MB Kongsberg multibeam vendor format
0101_20130302_004003_Langseth.all.mb58.gz 26.56MB Kongsberg multibeam vendor format
0102_20130302_011000_Langseth.all.mb58.gz 26.74MB Kongsberg multibeam vendor format
0103_20130302_013957_Langseth.all.mb58.gz 27.34MB Kongsberg multibeam vendor format
0104_20130302_021000_Langseth.all.mb58.gz 22.09MB Kongsberg multibeam vendor format
0105_20130302_023955_Langseth.all.mb58.gz 25.07MB Kongsberg multibeam vendor format
0106_20130302_031002_Langseth.all.mb58.gz 28.22MB Kongsberg multibeam vendor format
0107_20130302_033959_Langseth.all.mb58.gz 35.47MB Kongsberg multibeam vendor format
0108_20130302_040958_Langseth.all.mb58.gz 37.47MB Kongsberg multibeam vendor format
0109_20130302_043957_Langseth.all.mb58.gz 36.80MB Kongsberg multibeam vendor format
0110_20130302_050955_Langseth.all.mb58.gz 37.69MB Kongsberg multibeam vendor format
0111_20130302_053955_Langseth.all.mb58.gz 37.58MB Kongsberg multibeam vendor format
0112_20130302_060959_Langseth.all.mb58.gz 35.85MB Kongsberg multibeam vendor format
0113_20130302_064000_Langseth.all.mb58.gz 34.31MB Kongsberg multibeam vendor format
0114_20130302_070959_Langseth.all.mb58.gz 36.29MB Kongsberg multibeam vendor format
0115_20130302_073958_Langseth.all.mb58.gz 37.23MB Kongsberg multibeam vendor format
0116_20130302_080956_Langseth.all.mb58.gz 37.64MB Kongsberg multibeam vendor format
0117_20130302_083955_Langseth.all.mb58.gz 38.73MB Kongsberg multibeam vendor format
0118_20130302_090957_Langseth.all.mb58.gz 43.99MB Kongsberg multibeam vendor format
0119_20130302_093955_Langseth.all.mb58.gz 53.39MB Kongsberg multibeam vendor format
0120_20130302_100955_Langseth.all.mb58.gz 62.30MB Kongsberg multibeam vendor format
0121_20130302_103956_Langseth.all.mb58.gz 58.56MB Kongsberg multibeam vendor format
0122_20130302_110955_Langseth.all.mb58.gz 54.89MB Kongsberg multibeam vendor format
0123_20130302_113955_Langseth.all.mb58.gz 49.25MB Kongsberg multibeam vendor format
0124_20130302_120955_Langseth.all.mb58.gz 45.07MB Kongsberg multibeam vendor format
0125_20130302_123956_Langseth.all.mb58.gz 40.92MB Kongsberg multibeam vendor format
0126_20130302_130957_Langseth.all.mb58.gz 38.04MB Kongsberg multibeam vendor format
0127_20130302_133956_Langseth.all.mb58.gz 38.79MB Kongsberg multibeam vendor format
0128_20130302_140956_Langseth.all.mb58.gz 42.78MB Kongsberg multibeam vendor format
0129_20130302_143955_Langseth.all.mb58.gz 45.79MB Kongsberg multibeam vendor format
0130_20130302_150957_Langseth.all.mb58.gz 47.45MB Kongsberg multibeam vendor format
0131_20130302_153957_Langseth.all.mb58.gz 45.89MB Kongsberg multibeam vendor format
0132_20130302_160956_Langseth.all.mb58.gz 36.08MB Kongsberg multibeam vendor format
0133_20130302_163958_Langseth.all.mb58.gz 32.64MB Kongsberg multibeam vendor format
0134_20130302_170956_Langseth.all.mb58.gz 29.57MB Kongsberg multibeam vendor format
0135_20130302_173956_Langseth.all.mb58.gz 34.99MB Kongsberg multibeam vendor format
0136_20130302_181000_Langseth.all.mb58.gz 36.80MB Kongsberg multibeam vendor format
0137_20130302_183957_Langseth.all.mb58.gz 38.32MB Kongsberg multibeam vendor format
0138_20130302_190955_Langseth.all.mb58.gz 40.97MB Kongsberg multibeam vendor format
0139_20130302_193955_Langseth.all.mb58.gz 41.15MB Kongsberg multibeam vendor format
0140_20130302_200958_Langseth.all.mb58.gz 38.19MB Kongsberg multibeam vendor format
0141_20130302_203955_Langseth.all.mb58.gz 39.96MB Kongsberg multibeam vendor format
0142_20130302_210957_Langseth.all.mb58.gz 39.12MB Kongsberg multibeam vendor format
0143_20130302_213954_Langseth.all.mb58.gz 39.14MB Kongsberg multibeam vendor format
0144_20130302_220959_Langseth.all.mb58.gz 38.97MB Kongsberg multibeam vendor format
0145_20130302_223955_Langseth.all.mb58.gz 38.30MB Kongsberg multibeam vendor format
0146_20130302_230958_Langseth.all.mb58.gz 37.72MB Kongsberg multibeam vendor format
0147_20130302_233956_Langseth.all.mb58.gz 38.56MB Kongsberg multibeam vendor format
0148_20130303_000956_Langseth.all.mb58.gz 41.87MB Kongsberg multibeam vendor format
0149_20130303_003956_Langseth.all.mb58.gz 40.93MB Kongsberg multibeam vendor format
0150_20130303_010956_Langseth.all.mb58.gz 40.86MB Kongsberg multibeam vendor format
0151_20130320_152844_Langseth.all.mb58.gz 31.81MB Kongsberg multibeam vendor format
0152_20130320_155842_Langseth.all.mb58.gz 28.13MB Kongsberg multibeam vendor format
0153_20130320_162840_Langseth.all.mb58.gz 30.59MB Kongsberg multibeam vendor format
0154_20130320_165840_Langseth.all.mb58.gz 31.24MB Kongsberg multibeam vendor format
0155_20130320_172842_Langseth.all.mb58.gz 33.53MB Kongsberg multibeam vendor format
0156_20130320_175845_Langseth.all.mb58.gz 33.41MB Kongsberg multibeam vendor format
0157_20130320_182844_Langseth.all.mb58.gz 36.14MB Kongsberg multibeam vendor format
0158_20130320_185844_Langseth.all.mb58.gz 36.85MB Kongsberg multibeam vendor format
0159_20130320_192844_Langseth.all.mb58.gz 36.19MB Kongsberg multibeam vendor format
0160_20130320_195842_Langseth.all.mb58.gz 36.03MB Kongsberg multibeam vendor format
0161_20130320_202840_Langseth.all.mb58.gz 35.79MB Kongsberg multibeam vendor format
0162_20130320_205841_Langseth.all.mb58.gz 39.15MB Kongsberg multibeam vendor format
0163_20130320_212843_Langseth.all.mb58.gz 45.76MB Kongsberg multibeam vendor format
0164_20130320_215842_Langseth.all.mb58.gz 46.81MB Kongsberg multibeam vendor format
0165_20130320_222843_Langseth.all.mb58.gz 41.46MB Kongsberg multibeam vendor format
0166_20130320_225842_Langseth.all.mb58.gz 46.38MB Kongsberg multibeam vendor format
0167_20130320_232841_Langseth.all.mb58.gz 59.22MB Kongsberg multibeam vendor format
0168_20130320_235840_Langseth.all.mb58.gz 57.16MB Kongsberg multibeam vendor format
0169_20130321_002840_Langseth.all.mb58.gz 67.82MB Kongsberg multibeam vendor format
0170_20130321_005840_Langseth.all.mb58.gz 84.30MB Kongsberg multibeam vendor format
0171_20130321_012840_Langseth.all.mb58.gz 131.59MB Kongsberg multibeam vendor format
0172_20130321_015840_Langseth.all.mb58.gz 159.30MB Kongsberg multibeam vendor format
0173_20130321_022840_Langseth.all.mb58.gz 163.78MB Kongsberg multibeam vendor format
0174_20130321_025840_Langseth.all.mb58.gz 165.22MB Kongsberg multibeam vendor format
0175_20130321_032840_Langseth.all.mb58.gz 161.57MB Kongsberg multibeam vendor format
0176_20130321_035840_Langseth.all.mb58.gz 160.31MB Kongsberg multibeam vendor format
0177_20130321_042840_Langseth.all.mb58.gz 159.57MB Kongsberg multibeam vendor format
0178_20130321_045840_Langseth.all.mb58.gz 160.58MB Kongsberg multibeam vendor format
0179_20130321_052840_Langseth.all.mb58.gz 159.01MB Kongsberg multibeam vendor format
0180_20130321_055840_Langseth.all.mb58.gz 159.46MB Kongsberg multibeam vendor format
0181_20130321_062840_Langseth.all.mb58.gz 59.53MB Kongsberg multibeam vendor format
0182_20130321_065858_Langseth.all.mb58.gz 10.73MB Kongsberg multibeam vendor format
0183_20130321_072846_Langseth.all.mb58.gz 12.04MB Kongsberg multibeam vendor format
0184_20130321_075846_Langseth.all.mb58.gz 8.95MB Kongsberg multibeam vendor format
0185_20130321_082840_Langseth.all.mb58.gz 10.07MB Kongsberg multibeam vendor format
0186_20130321_085902_Langseth.all.mb58.gz 9.24MB Kongsberg multibeam vendor format
0187_20130321_092845_Langseth.all.mb58.gz 9.03MB Kongsberg multibeam vendor format
0188_20130321_095849_Langseth.all.mb58.gz 9.57MB Kongsberg multibeam vendor format
0189_20130321_102842_Langseth.all.mb58.gz 8.01MB Kongsberg multibeam vendor format
0190_20130321_105843_Langseth.all.mb58.gz 7.47MB Kongsberg multibeam vendor format
0191_20130321_112858_Langseth.all.mb58.gz 2.48MB Kongsberg multibeam vendor format
9999.all.mb58.gz 34.25MB Kongsberg multibeam vendor format

Metadata Files: 2

Files File Size Description
MGL1302_Multibeam.xml NGDC created ISO metadata
em122_bag_info.tar.gz 13.7KB Additional cruise information

Water Column Sonar Data

Water Column Sonar Data Available: WCSD Map Viewer